Tiempo cada hora Murzynowo

Hoy, 28 Octubre, Miércoles

Tiempo Temperatura Precipitaciones Viento Presión Humedad
00:00 +9°C° 0 mm 2 mps 752 mmHg 89%
01:00 +9°C° 0 mm 3 mps 753 mmHg 89%
02:00 +9°C° 0 mm 3 mps 752 mmHg 89%
03:00 +8°C° 0 mm 2 mps 752 mmHg 90%
04:00 +8°C° 0 mm 2 mps 752 mmHg 90%
05:00 +8°C° 0 mm 3 mps 752 mmHg 89%
06:00 +7°C° 0 mm 3 mps 752 mmHg 89%
07:00 +7°C° 0 mm 3 mps 752 mmHg 88%
08:00 +9°C° 0 mm 3 mps 752 mmHg 80%
09:00 +10°C° 0 mm 4 mps 752 mmHg 72%
10:00 +12°C° 0 mm 4 mps 752 mmHg 64%
11:00 +13°C° 0 mm 4 mps 752 mmHg 62%
12:00 +14°C° 0 mm 4 mps 752 mmHg 59%
13:00 +15°C° 0 mm 5 mps 752 mmHg 57%
14:00 +14°C° 0 mm 4 mps 752 mmHg 60%
15:00 +13°C° 0 mm 3 mps 752 mmHg 63%
16:00 +12°C° 0 mm 3 mps 752 mmHg 66%
17:00 +12°C° 0 mm 3 mps 752 mmHg 66%
18:00 +12°C° 0 mm 3 mps 752 mmHg 65%
19:00 +11°C° 0 mm 3 mps 752 mmHg 64%
20:00 +11°C° 0 mm 3 mps 752 mmHg 68%
21:00 +10°C° 0 mm 3 mps 752 mmHg 72%
22:00 +9°C° 0 mm 3 mps 752 mmHg 75%
23:00 +9°C° 0 mm 2 mps 752 mmHg 77%

Mañana, 29 Octubre, Jueves

Tiempo Temperatura Precipitaciones Viento Presión Humedad
00:00 +9°C° 0 mm 2 mps 752 mmHg 80%
01:00 +8°C° 0 mm 2 mps 752 mmHg 82%
02:00 +8°C° 0 mm 3 mps 752 mmHg 83%
03:00 +8°C° 0 mm 3 mps 752 mmHg 85%
04:00 +8°C° 0 mm 3 mps 752 mmHg 87%
05:00 +8°C° 0 mm 3 mps 752 mmHg 88%
06:00 +8°C° 0 mm 3 mps 752 mmHg 88%
07:00 +8°C° 0 mm 3 mps 752 mmHg 89%
08:00 +8°C° 0 mm 4 mps 752 mmHg 83%
09:00 +10°C° 0 mm 4 mps 752 mmHg 78%
10:00 +10°C° 0 mm 5 mps 752 mmHg 72%
11:00 +12°C° 0 mm 5 mps 751 mmHg 70%
12:00 +13°C° 0 mm 5 mps 751 mmHg 68%
13:00 +13°C° 0 mm 5 mps 751 mmHg 65%
14:00 +12°C° 0.3 mm 5 mps 751 mmHg 71%
15:00 +11°C° 0.3 mm 4 mps 751 mmHg 77%
16:00 +11°C° 0.3 mm 4 mps 751 mmHg 83%
17:00 +10°C° 1.1 mm 4 mps 751 mmHg 82%
18:00 +10°C° 1.1 mm 4 mps 752 mmHg 81%
19:00 +9°C° 1.1 mm 5 mps 752 mmHg 81%
20:00 +8°C° 0.1 mm 5 mps 753 mmHg 81%
21:00 +8°C° 0.1 mm 5 mps 753 mmHg 81%
22:00 +7°C° 0.1 mm 5 mps 754 mmHg 81%
23:00 +7°C° 0 mm 5 mps 754 mmHg 82%

Pasado mañana, 30 Octubre, Viernes

Tiempo Temperatura Precipitaciones Viento Presión Humedad
00:00 +6°C° 0 mm 5 mps 754 mmHg 84%
01:00 +6°C° 0 mm 4 mps 754 mmHg 85%
02:00 +5°C° 0 mm 4 mps 755 mmHg 87%
03:00 +5°C° 0 mm 4 mps 755 mmHg 88%
04:00 +5°C° 0 mm 4 mps 755 mmHg 90%
05:00 +5°C° 0 mm 4 mps 755 mmHg 92%
06:00 +4°C° 0 mm 4 mps 755 mmHg 93%
07:00 +4°C° 0 mm 3 mps 755 mmHg 95%
08:00 +5°C° 0 mm 3 mps 755 mmHg 90%
09:00 +7°C° 0 mm 3 mps 755 mmHg 85%
10:00 +8°C° 0 mm 3 mps 755 mmHg 80%
11:00 +8°C° 0 mm 3 mps 755 mmHg 77%
12:00 +8°C° 0 mm 4 mps 754 mmHg 74%
13:00 +8°C° 0 mm 4 mps 754 mmHg 72%
14:00 +9°C° 0.5 mm 3 mps 754 mmHg 78%
15:00 +8°C° 0.5 mm 3 mps 754 mmHg 84%
16:00 +7°C° 0.5 mm 2 mps 753 mmHg 90%
17:00 +7°C° 0.4 mm 3 mps 753 mmHg 90%
18:00 +7°C° 0.4 mm 3 mps 754 mmHg 89%
19:00 +7°C° 0.4 mm 3 mps 754 mmHg 89%
20:00 +7°C° 0 mm 3 mps 754 mmHg 89%
21:00 +7°C° 0 mm 2 mps 755 mmHg 88%
22:00 +8°C° 0 mm 1 mps 755 mmHg 88%
23:00 +8°C° 0 mm 1 mps 756 mmHg 89%

31 Octubre, Sábado

Tiempo Temperatura Precipitaciones Viento Presión Humedad
00:00 +7°C° 0 mm 1 mps 756 mmHg 90%
01:00 +6°C° 0 mm 1 mps 757 mmHg 91%
02:00 +6°C° 0 mm 1 mps 757 mmHg 91%
03:00 +6°C° 0 mm 1 mps 758 mmHg 91%
04:00 +6°C° 0 mm 1 mps 759 mmHg 91%
05:00 +5°C° 0 mm 1 mps 759 mmHg 91%
06:00 +5°C° 0 mm 1 mps 759 mmHg 91%
07:00 +5°C° 0 mm 1 mps 760 mmHg 91%
08:00 +7°C° 0 mm 1 mps 760 mmHg 85%
09:00 +7°C° 0 mm 2 mps 761 mmHg 79%
10:00 +8°C° 0 mm 2 mps 761 mmHg 74%
11:00 +9°C° 0 mm 2 mps 761 mmHg 70%
12:00 +10°C° 0 mm 2 mps 761 mmHg 66%
13:00 +12°C° 0 mm 2 mps 761 mmHg 63%
14:00 +10°C° 0 mm 2 mps 761 mmHg 66%
15:00 +9°C° 0 mm 2 mps 761 mmHg 70%
16:00 +8°C° 0 mm 2 mps 761 mmHg 73%
17:00 +8°C° 0 mm 2 mps 761 mmHg 75%
18:00 +7°C° 0 mm 2 mps 761 mmHg 77%
19:00 +7°C° 0 mm 3 mps 761 mmHg 78%
20:00 +5°C° 0 mm 3 mps 761 mmHg 79%
21:00 +5°C° 0 mm 3 mps 761 mmHg 79%
22:00 +5°C° 0 mm 3 mps 761 mmHg 80%
23:00 +5°C° 0 mm 3 mps 761 mmHg 80%

1 Noviembre, Domingo

Tiempo Temperatura Precipitaciones Viento Presión Humedad
00:00 +4°C° 0 mm 3 mps 761 mmHg 81%
01:00 +4°C° 0 mm 3 mps 761 mmHg 82%
02:00 +4°C° 0 mm 3 mps 761 mmHg 83%
03:00 +4°C° 0 mm 3 mps 760 mmHg 85%
04:00 +4°C° 0 mm 3 mps 760 mmHg 86%
05:00 +4°C° 0 mm 4 mps 760 mmHg 86%
06:00 +4°C° 0 mm 4 mps 760 mmHg 87%
07:00 +4°C° 0 mm 4 mps 760 mmHg 87%
08:00 +5°C° 0 mm 4 mps 759 mmHg 81%
09:00 +6°C° 0 mm 5 mps 759 mmHg 74%
10:00 +8°C° 0 mm 5 mps 759 mmHg 68%
11:00 +9°C° 0 mm 5 mps 759 mmHg 67%
12:00 +10°C° 0 mm 5 mps 758 mmHg 65%
13:00 +12°C° 0 mm 5 mps 758 mmHg 64%
14:00 +10°C° 0 mm 5 mps 758 mmHg 67%
15:00 +10°C° 0 mm 4 mps 757 mmHg 70%
16:00 +10°C° 0 mm 4 mps 757 mmHg 74%
17:00 +8°C° 0 mm 4 mps 757 mmHg 76%
18:00 +8°C° 0 mm 4 mps 757 mmHg 78%
19:00 +7°C° 0 mm 4 mps 757 mmHg 81%
20:00 +7°C° 0 mm 4 mps 757 mmHg 83%
21:00 +7°C° 0 mm 4 mps 757 mmHg 85%
22:00 +7°C° 0 mm 4 mps 757 mmHg 87%
23:00 +7°C° 0 mm 4 mps 757 mmHg 88%

2 Noviembre, Lunes

Tiempo Temperatura Precipitaciones Viento Presión Humedad
00:00 +6°C° 0 mm 4 mps 757 mmHg 89%
01:00 +6°C° 0 mm 4 mps 757 mmHg 91%
02:00 +6°C° 0 mm 4 mps 756 mmHg 90%
03:00 +6°C° 0 mm 4 mps 756 mmHg 90%
04:00 +6°C° 0 mm 4 mps 756 mmHg 90%
05:00 +7°C° 0 mm 3 mps 756 mmHg 90%
06:00 +7°C° 0 mm 3 mps 756 mmHg 89%
07:00 +7°C° 0 mm 3 mps 756 mmHg 89%
08:00 +8°C° 0 mm 3 mps 756 mmHg 84%
09:00 +8°C° 0 mm 4 mps 757 mmHg 79%
10:00 +11°C° 0 mm 4 mps 757 mmHg 74%
11:00 +11°C° 0 mm 4 mps 757 mmHg 72%
12:00 +12°C° 0 mm 4 mps 757 mmHg 70%
13:00 +13°C° 0 mm 4 mps 757 mmHg 68%
14:00 +12°C° 0 mm 4 mps 757 mmHg 70%
15:00 +12°C° 0 mm 3 mps 757 mmHg 73%
16:00 +11°C° 0 mm 3 mps 757 mmHg 75%
17:00 +11°C° 0 mm 3 mps 757 mmHg 76%
18:00 +11°C° 0 mm 3 mps 757 mmHg 77%
19:00 +11°C° 0 mm 3 mps 757 mmHg 77%
20:00 +11°C° 0 mm 3 mps 757 mmHg 78%
21:00 +10°C° 0 mm 3 mps 758 mmHg 79%
22:00 +10°C° 0 mm 3 mps 758 mmHg 80%
23:00 +10°C° 0 mm 3 mps 758 mmHg 80%
Mostrar más

Necesitamos Su Consentimiento

Meteoprog y nuestros Proveedores de Servicios pueden almacenar y acceder a sus datos personales como cookies, identificadores de dispositivo u otras tecnologías similares de su dispositivo y procesar dichos datos para personalizar contenido y anuncios, además de ofrecer funciones de redes sociales y analizar el tráfico.

  • Almacenar y/o acceder a información en su dispositivo

    Se puede almacenar o acceder a cookies, identificadores de dispositivo u otra información de su dispositivo para los fines anteriormente indicados.

  • Anuncios y contenido personalizados, medición de anuncios y contenido, percepciones del público, y desarrollo de productos

    Los anuncios y el contenido pueden personalizarse en base a su perfil. Se pueden añadir más datos para personalizar mejor los anuncios y contenidos. Se puede medir el rendimiento de los anuncios y contenidos. Se puede obtener la percepción sobre el público que ha visto los anuncios y contenidos. Dichos datos pueden usarse para desarrollar o mejorar la experiencia del usuario, sistemas y software.

Al hacer clic en ‘Estoy De Acuerdo’ usted permitirá el uso de las cookies, identificadores de dispositivo, balizas web u otras tecnologías similares indicadas. Su configuración puede cambiarse desde el navegador de su dispositivo.

Para ciertos fines, los intereses legítimos pueden ser considerados por encima del consentimiento. Puede leer más sobre ello en nuestra Política de Privacidad y Cookies.